Monticello, KY

10:30 PM EDT on June 28, 2017 (GMT -0400)
Wayne County

Weather History for KEKQ - March, 2013

Change the Weather History Date:

Thursday, March 7, 2013

  Actual Average Record
Temperature  
Mean Temperature 31 °F -  
Max Temperature 34 °F 55 °F 79 °F (1983)
Min Temperature 28 °F 32 °F 10 °F (2015)
Degree Days  
Heating Degree Days 34    
Moisture  
Dew Point 27 °F    
Average Humidity 85    
Maximum Humidity 100    
Minimum Humidity 76    
Precipitation  
Precipitation 0.00 in - - ()
Sea Level Pressure  
Sea Level Pressure 30.40 in    
Wind  
Wind Speed 5 mph (South)    
Max Wind Speed 7 mph    
Max Gust Speed -    
Visibility 9 miles    
Events      
Averages and records for this station are not official NWS values.
T = Trace of Precipitation, MM = Missing Value Source: NWS Daily Summary

Daily Weather History Graph

Daily Weather History Graph

Search for Another Location

Airport or City:

Trip Planner

Search our weather history database for the weather conditions in past years. The results will help you decide how hot, cold, wet, or windy it might be!

Date:

Astronomy

Mar. 07, 2013 Rise Set
Actual Time 6:01 AM CST 5:39 PM CST
Civil Twilight 5:35 AM CST 6:05 PM CST
Nautical Twilight 5:05 AM CST 6:35 PM CST
Astronomical Twilight 4:35 AM CST 7:05 PM CST
Moon 2:55 AM CST (3/7) 1:31 PM CST (3/7)
Length of Visible Light 12h 29m
Length of Day
11h 38m
Waning Crescent, 20% of the Moon is Illuminated
Mar 7
Waning Crescent
Mar 11
New
Mar 19
First Quarter
Mar 27
Full
Apr 2
Last Quarter

Hourly Weather History & Observations

Time (CST) Temp. Windchill Dew Point Humidity Pressure Visibility Wind Dir Wind Speed Gust Speed Precip Events Conditions
12:56 AM 30.0 °F 24.1 °F 28.0 °F 92% 30.34 in 9.0 mi South 5.8 mph - N/A   Overcast
1:56 AM 30.0 °F 25.2 °F 28.0 °F 92% 30.34 in 8.0 mi SE 4.6 mph - N/A   Overcast
2:56 AM 30.0 °F 25.2 °F 27.1 °F 89% 30.35 in 9.0 mi SE 4.6 mph - N/A   Overcast
3:42 AM 30.2 °F 24.3 °F 28.4 °F 93% 30.32 in 4.0 mi SE 5.8 mph - 0.00 in   Overcast
3:56 AM 29.1 °F 22.1 °F 28.0 °F 96% 30.36 in 4.0 mi SE 6.9 mph - 0.00 in   Overcast
4:10 AM 28.4 °F 21.2 °F 28.4 °F 100% 30.32 in 3.0 mi ESE 6.9 mph - 0.00 in   Overcast
4:18 AM 28.4 °F 24.6 °F 28.4 °F 100% 30.32 in 4.0 mi ESE 3.5 mph - 0.00 in   Overcast
4:56 AM 29.1 °F 25.4 °F 28.0 °F 96% 30.38 in 6.0 mi SE 3.5 mph - 0.00 in   Overcast
5:56 AM 29.1 °F 23.0 °F 27.1 °F 92% 30.39 in 9.0 mi SSE 5.8 mph - N/A   Overcast
6:56 AM 30.0 °F - 27.1 °F 89% 30.41 in 10.0 mi Calm Calm - N/A   Overcast
7:25 AM 30.2 °F - 26.6 °F 86% 30.37 in 10.0 mi Calm Calm - N/A   Overcast
7:56 AM 30.0 °F 24.1 °F 26.1 °F 85% 30.42 in 8.0 mi South 5.8 mph - 0.00 in   Overcast
8:56 AM 31.1 °F - 26.1 °F 82% 30.43 in 10.0 mi Calm Calm - 0.00 in   Overcast
9:56 AM 32.0 °F 26.4 °F 27.1 °F 82% 30.43 in 10.0 mi South 5.8 mph - N/A   Overcast
10:56 AM 32.0 °F 27.5 °F 27.1 °F 82% 30.43 in 10.0 mi SW 4.6 mph - N/A   Overcast
11:56 AM 32.9 °F 27.5 °F 27.1 °F 79% 30.43 in 10.0 mi SSE 5.8 mph - N/A   Overcast
12:56 PM 34.0 °F 29.8 °F 28.0 °F 79% 30.40 in 10.0 mi SSE 4.6 mph - N/A   Overcast
1:56 PM 34.0 °F 28.0 °F 27.1 °F 76% 30.40 in 10.0 mi South 6.9 mph - N/A   Overcast
2:56 PM 34.0 °F - 27.1 °F 76% 30.41 in 10.0 mi Calm Calm - N/A   Overcast
3:56 PM 34.0 °F 29.8 °F 27.1 °F 76% 30.40 in 10.0 mi SSE 4.6 mph - N/A   Overcast
4:56 PM 34.0 °F 31.0 °F 27.1 °F 76% 30.41 in 10.0 mi South 3.5 mph - N/A   Overcast
5:56 PM 32.9 °F - 28.0 °F 82% 30.43 in 10.0 mi Calm Calm - N/A   Overcast
6:56 PM 32.9 °F - 28.0 °F 82% 30.43 in 10.0 mi Calm Calm - N/A   Overcast
7:56 PM 32.9 °F 28.5 °F 27.1 °F 79% 30.43 in 10.0 mi SW 4.6 mph - N/A   Overcast
8:56 PM 32.9 °F 27.5 °F 27.1 °F 79% 30.44 in 10.0 mi SW 5.8 mph - N/A   Overcast
9:56 PM 32.0 °F 26.4 °F 26.1 °F 79% 30.43 in 10.0 mi SW 5.8 mph - N/A   Overcast
10:56 PM 32.0 °F 26.4 °F 26.1 °F 79% 30.43 in 10.0 mi WSW 5.8 mph - N/A   Overcast
11:56 PM 32.0 °F 26.4 °F 26.1 °F 79% 30.41 in 10.0 mi West 5.8 mph - N/A   Overcast